This demonstration page uses our WeatherBlox Daily Observations layout. Learn more.

Left ArrowRight Arrow

41.86663, -103.66717

Hourly Observations for January 27, 2020

Temp ( °F °C ) Dew Point ( °F °C ) Humidity (%) Winds ( mph kmh ) Pressure ( in mb ) Visibility ( mi km ) Precip ( " mm )
12:53 am 00:53 Mostly Clear 24 -4.4 20 -6.7 84 84 E 3 6 30.01 1016 10 16.0934 0 0
1:53 am 01:53 Cloudy 23 -5 19 -7.2 85 85 E 5 7 30 1016 10 16.0934 0 0
2:53 am 02:53 Cloudy 26 -3.3 23 -5 88 88 ESE 5 7 29.99 1016 10 16.0934 0 0
3:53 am 03:53 Mostly Cloudy 25 -3.9 22 -5.6 88 88 E 3 6 29.99 1016 10 16.0934 0 0
4:53 am 04:53 Clear 23 -5 22 -5.6 96 96 SSE 5 7 30.01 1016 10 16.0934 0 0
5:53 am 05:53 Mostly Clear 21 -6.1 19 -7.2 92 92 E 6 9 30.04 1017 10 16.0934 0 0
6:53 am 06:53 Mostly Cloudy 23 -5 21 -6.1 92 92 E 6 9 30.04 1017 10 16.0934 0 0
7:53 am 07:53 Cloudy 26 -3.3 24 -4.4 92 92 ESE 8 13 30.05 1018 10 16.0934 0 0
8:53 am 08:53 Cloudy 28 -2.2 26 -3.3 92 92 E 8 13 30.06 1018 10 16.0934 0 0
9:53 am 09:53 Cloudy 30 -1.1 27 -2.8 88 88 ESE 10 17 30.06 1018 10 16.0934 0 0
10:53 am 10:53 Cloudy 32 0 28 -2.2 85 85 ESE 12 19 30.06 1018 10 16.0934 0 0
11:53 am 11:53 Cloudy 34 1.1 29 -1.7 82 82 ESE 13 20 30.03 1017 10 16.0934 0 0
12:53 pm 12:53 Cloudy 34 1.1 29 -1.7 82 82 E 14 22 30.01 1016 10 16.0934 0.001 0.001
1:53 pm 13:53 Cloudy 36 2.2 29 -1.7 76 76 ESE 10 17 30 1016 10 16.0934 0 0
2:53 pm 14:53 Cloudy 38 3.3 29 -1.7 70 70 SE 9 15 29.99 1016 10 16.0934 0 0
3:53 pm 15:53 Cloudy 38 3.3 29 -1.7 70 70 ESE 10 17 30 1016 10 16.0934 0 0
4:53 pm 16:53 Mostly Sunny 36 2.2 28 -2.2 73 73 ESE 8 13 30.01 1016 10 16.0934 0 0
5:53 pm 17:53 Cloudy 35 1.7 28 -2.2 76 76 ESE 6 9 30.04 1017 10 16.0934 0 0
6:53 pm 18:53 Cloudy with Light Rain 34 1.1 31 -0.6 89 89 WNW 6 9 30.06 1018 10 16.0934 0.001 0.001
7:53 pm 19:53 Cloudy 35 1.7 32 0 89 89 WNW 14 22 30.07 1018 10 16.0934 0.001 0.001
8:53 pm 20:53 Mostly Cloudy 33 0.6 31 -0.6 92 92 NW 10 17 30.09 1019 10 16.0934 0 0
9:24 pm 21:24 Cloudy 34 1.1 31 -0.6 89 89 NW 15 24 30.12 1020 10 16.0934 0 0
9:53 pm 21:53 Mostly Cloudy 34 1.1 31 -0.6 89 89 WNW 12 19 30.1 1019 10 16.0934 0 0
10:30 pm 22:30 Cloudy 34 1.1 33 0.6 97 97 WNW 9 15 30.14 1021 8 12.87472 0 0
10:53 pm 22:53 Mostly Cloudy 34 1.1 33 0.6 97 97 WNW 15 24 30.11 1020 10 16.0934 0 0
11:46 pm 23:46 Partly Cloudy 34 1.1 33 0.6 97 97 WNW 14 22 30.15 1021 10 16.0934 0 0
11:53 pm 23:53 Mostly Clear 34 1.1 32 0 92 92 WNW 13 20 30.12 1020 10 16.0934 0 0

Powered by AerisWeather